Skip Page Navigation
NASA JPL Caltech
NASA Logo - Jet Propulsion Laboratory + View the NASA Portal
+ Center for Near-Earth Object Studies
JPL Home Earth Solar System Stars & Galaxies Technology
JPL Solar System Dynamics
BODIES ORBITS EPHEMERIDES TOOLS PHYSICAL DATA DISCOVERY FAQ SITE MAP
IMPORTANT: The SSD Announcement email list is now available. Major changes are coming in the near future, including possible hostname and/or URL changes. To be notified of such changes, subscribe to this email list.

Please visit this page for more details.


JPL Small-Body Database Browser
Search: [ help ]  
4506 Hendrie (1990 FJ)
Classification: Main-belt Asteroid          SPK-ID: 2004506
Ephemeris | Orbit Diagram | Orbital Elements | Mission Design | Physical Parameters | Discovery Circumstances | Close-Approach Data ]

[ show orbit diagram ]
Orbital Elements at Epoch 2459000.5 (2020-May-31.0) TDB
Reference: JPL 35 (heliocentric ecliptic J2000)
 Element Value Uncertainty (1-sigma)   Units 
e .01230007688375484 3.6349e-08  
a 2.882283630728627 1.2921e-08 au
q 2.846831320469877 1.0421e-07 au
i 3.004273551972631 3.9456e-06 deg
node 63.72689597096074 6.8092e-05 deg
peri 174.2525813021573 0.00015913 deg
M 353.8812870455041 0.0001433 deg
tp 2459030.878132969491
(2020-Jun-30.37813297)
0.00071142 TDB
period 1787.324875402301
4.89
1.2019e-05
3.291e-08
d
yr
n .2014183347159924 1.3544e-09 deg/d
Q 2.917735940987378 1.308e-08 au
  Orbit Determination Parameters
   # obs. used (total)      2604  
   data-arc span      25722 days (70.42 yr)  
   first obs. used      1949-11-25  
   last obs. used      2020-04-28  
   planetary ephem.      DE431  
   SB-pert. ephem.      SB431-N16  
   condition code      0  
   norm. resid. RMS      .4509  
   source      ORB  
   producer      Otto Matic  
   solution date      2020-May-20 02:08:47  

Additional Information
 Earth MOID = 1.83363 au 
 Jupiter MOID = 2.04709 au 
 T_jup = 3.292 
[ show covariance matrix ]

Ephemeris | Orbit Diagram | Orbital Elements | Mission Design | Physical Parameters | Discovery Circumstances | Close-Approach Data ]

Physical Parameter Table
Parameter Symbol Value Units Sigma Reference Notes
absolute magnitude H 12.6   n/a MPO337289  
diameter diameter 8.754 km 0.137 urn:nasa:pds:neowise_diameters_albedos::2.0[mainbelt] (http://adsabs.harvard.edu/abs/2011ApJ...741...68M)  
rotation period rot_per 5.511 h n/a LCDB (Rev. 2019-August); Warner et al., 2009 Result based on less than full coverage, so that the period may be wrong by 30 percent or so.
Published Reference List:
[Chang, C.K.; Ip, W.-H.; Lin, H.-W.; Cheng, Y.C.; et al. (2015) Astrophys. J. Supp. Ser. 219, A27.]
[Waszczak, A.; Chang, C.-K.; Ofeck, E.O.; Laher, F.; et al. (2015) Astron. J. 150, A75.]
geometric albedo albedo 0.269   0.017 urn:nasa:pds:neowise_diameters_albedos::2.0[mainbelt] (http://adsabs.harvard.edu/abs/2011ApJ...741...68M)  

4506 Hendrie (1990 FJ)          Discovered 1990-Mar-24 by Manning, B. G. W. at Stakenbridge
Reference: DISCOVERY.DBLast Updated: 2003-08-29

[ show close-approach data ]
Alternate Designations
 1990 FJ = 1980 DM2 = 1983 WE = 1987 RV2 = 1987 SF16 
Ephemeris | Orbit Diagram | Orbital Elements | Mission Design | Physical Parameters | Discovery Circumstances | Close-Approach Data ]
ABOUT SSD CREDITS/AWARDS PRIVACY/COPYRIGHT GLOSSARY LINKS
FirstGov 2020-Jun-02 19:07 UT
(server date/time)  
NASA Home Page
Site Manager:   Ryan S. Park
Webmaster  Alan B. Chamberlin